Time,TemperatureF,DewpointF,PressureIn,WindDirection,WindDirectionDegrees,WindSpeedMPH,WindSpeedGustMPH,Humidity,HourlyPrecipIn,Conditions,Clouds,dailyrainin,SoftwareType,DateUTC
2013-04-22 00:13:00,50.3,40.0,30.23,South,182,8.0,24.0,67,0.00,,,0.00,weatherlink.com 1.10,2013-04-22 05:13:00,
2013-04-22 00:28:00,50.2,40.0,30.23,SSW,194,18.0,18.0,67,0.00,,,0.00,weatherlink.com 1.10,2013-04-22 05:28:00,
2013-04-22 00:43:00,50.1,39.0,30.23,South,169,8.0,18.0,67,0.00,,,0.00,weatherlink.com 1.10,2013-04-22 05:43:00,
2013-04-22 00:58:00,49.9,39.0,30.23,SSE,162,10.0,17.0,67,0.00,,,0.00,weatherlink.com 1.10,2013-04-22 05:58:00,
2013-04-22 01:13:00,49.9,39.0,30.23,South,175,8.0,16.0,66,0.00,,,0.00,weatherlink.com 1.10,2013-04-22 06:13:00,
2013-04-22 01:28:00,49.9,39.0,30.23,SW,221,9.0,14.0,66,0.00,,,0.00,weatherlink.com 1.10,2013-04-22 06:28:00,
2013-04-22 01:43:00,50.0,39.0,30.22,SSW,194,11.0,20.0,65,0.00,,,0.00,weatherlink.com 1.10,2013-04-22 06:43:00,
2013-04-22 01:58:00,49.9,38.0,30.22,South,173,11.0,16.0,65,0.00,,,0.00,weatherlink.com 1.10,2013-04-22 06:58:00,
2013-04-22 02:13:00,49.8,38.0,30.22,WSW,238,11.0,16.0,65,0.00,,,0.00,weatherlink.com 1.10,2013-04-22 07:13:00,
2013-04-22 02:28:00,49.6,39.0,30.22,South,175,7.0,14.0,67,0.00,,,0.00,weatherlink.com 1.10,2013-04-22 07:28:00,
2013-04-22 02:43:00,49.4,39.0,30.22,SSW,203,8.0,14.0,67,0.00,,,0.00,weatherlink.com 1.10,2013-04-22 07:43:00,
2013-04-22 02:58:00,49.6,38.0,30.21,SSW,193,7.0,16.0,65,0.00,,,0.00,weatherlink.com 1.10,2013-04-22 07:58:00,
2013-04-22 03:13:00,49.6,38.0,30.21,South,173,8.0,13.0,65,0.00,,,0.00,weatherlink.com 1.10,2013-04-22 08:13:00,
2013-04-22 03:28:00,49.9,38.0,30.21,WSW,243,8.0,14.0,63,0.00,,,0.00,weatherlink.com 1.10,2013-04-22 08:28:00,
2013-04-22 03:43:00,49.7,37.0,30.21,SSE,165,8.0,11.0,63,0.00,,,0.00,weatherlink.com 1.10,2013-04-22 08:43:00,
2013-04-22 03:58:00,49.4,38.0,30.20,South,182,8.0,13.0,64,0.00,,,0.00,weatherlink.com 1.10,2013-04-22 08:58:00,
2013-04-22 04:13:00,49.3,37.0,30.20,SSE,158,5.0,16.0,64,0.00,,,0.00,weatherlink.com 1.10,2013-04-22 09:13:00,
2013-04-22 04:28:00,49.0,37.0,30.20,SSW,202,7.0,15.0,64,0.00,,,0.00,weatherlink.com 1.10,2013-04-22 09:28:00,
2013-04-22 04:44:00,48.6,37.0,30.19,South,191,5.0,11.0,64,0.00,,,0.00,weatherlink.com 1.10,2013-04-22 09:44:00,
2013-04-22 04:59:00,48.0,37.0,30.20,South,169,5.0,9.0,65,0.00,,,0.00,weatherlink.com 1.10,2013-04-22 09:59:00,
2013-04-22 05:14:00,47.8,37.0,30.19,SSE,160,4.0,9.0,66,0.00,,,0.00,weatherlink.com 1.10,2013-04-22 10:14:00,
2013-04-22 05:29:00,47.7,37.0,30.19,SSE,152,3.0,9.0,66,0.00,,,0.00,weatherlink.com 1.10,2013-04-22 10:29:00,
2013-04-22 05:44:00,47.8,37.0,30.20,SSW,193,5.0,8.0,66,0.00,,,0.00,weatherlink.com 1.10,2013-04-22 10:44:00,
2013-04-22 05:59:00,47.7,36.0,30.19,SSW,198,9.0,10.0,65,0.00,,,0.00,weatherlink.com 1.10,2013-04-22 10:59:00,
2013-04-22 06:14:00,47.7,36.0,30.19,SE,146,5.0,10.0,64,0.00,,,0.00,weatherlink.com 1.10,2013-04-22 11:14:00,
2013-04-22 06:29:00,47.9,36.0,30.20,South,191,8.0,10.0,64,0.00,,,0.00,weatherlink.com 1.10,2013-04-22 11:29:00,
2013-04-22 06:44:00,48.2,36.0,30.20,SSW,204,9.0,10.0,63,0.00,,,0.00,weatherlink.com 1.10,2013-04-22 11:44:00,
2013-04-22 06:59:00,48.5,36.0,30.20,SW,220,5.0,10.0,63,0.00,,,0.00,weatherlink.com 1.10,2013-04-22 11:59:00,
2013-04-22 07:14:00,48.5,36.0,30.20,South,184,2.0,10.0,63,0.00,,,0.00,weatherlink.com 1.10,2013-04-22 12:14:00,
2013-04-22 07:29:00,48.7,36.0,30.20,South,184,2.0,8.0,63,0.00,,,0.00,weatherlink.com 1.10,2013-04-22 12:29:00,
2013-04-22 07:44:00,49.3,37.0,30.20,South,190,3.0,9.0,63,0.00,,,0.00,weatherlink.com 1.10,2013-04-22 12:44:00,
2013-04-22 07:59:00,50.3,37.0,30.19,SSE,162,3.0,13.0,61,0.00,,,0.00,weatherlink.com 1.10,2013-04-22 12:59:00,
2013-04-22 08:14:00,50.6,37.0,30.19,South,186,6.0,13.0,60,0.00,,,0.00,weatherlink.com 1.10,2013-04-22 13:14:00,
2013-04-22 08:29:00,50.9,37.0,30.19,SSW,201,7.0,10.0,60,0.00,,,0.00,weatherlink.com 1.10,2013-04-22 13:29:00,
2013-04-22 08:44:00,51.8,37.0,30.18,South,183,9.0,13.0,58,0.00,,,0.00,weatherlink.com 1.10,2013-04-22 13:44:00,
2013-04-22 08:59:00,52.3,37.0,30.18,SSE,165,9.0,14.0,56,0.00,,,0.00,weatherlink.com 1.10,2013-04-22 13:59:00,
2013-04-22 09:14:00,53.4,38.0,30.18,South,177,9.0,16.0,56,0.00,,,0.00,weatherlink.com 1.10,2013-04-22 14:14:00,
2013-04-22 09:29:00,55.1,39.0,30.18,SSW,207,6.0,15.0,54,0.00,,,0.00,weatherlink.com 1.10,2013-04-22 14:29:00,
2013-04-22 09:44:00,56.7,40.0,30.18,West,262,7.0,16.0,53,0.00,,,0.00,weatherlink.com 1.10,2013-04-22 14:44:00,
2013-04-22 09:59:00,57.2,39.0,30.17,SSW,197,8.0,19.0,52,0.00,,,0.00,weatherlink.com 1.10,2013-04-22 14:59:00,
2013-04-22 10:14:00,57.8,40.0,30.17,South,182,9.0,16.0,51,0.00,,,0.00,weatherlink.com 1.10,2013-04-22 15:14:00,
2013-04-22 10:29:00,59.5,40.0,30.17,WSW,248,8.0,14.0,48,0.00,,,0.00,weatherlink.com 1.10,2013-04-22 15:29:00,
2013-04-22 10:44:00,60.5,39.0,30.17,SW,235,7.0,18.0,45,0.00,,,0.00,weatherlink.com 1.10,2013-04-22 15:44:00,
2013-04-22 11:00:00,61.7,37.0,30.17,West,267,12.0,18.0,40,0.00,,,0.00,weatherlink.com 1.10,2013-04-22 16:00:00,
2013-04-22 11:15:00,61.9,39.0,30.17,WSW,245,8.0,16.0,43,0.00,,,0.00,weatherlink.com 1.10,2013-04-22 16:15:00,
2013-04-22 11:30:00,62.3,39.0,30.16,WSW,253,4.0,18.0,42,0.00,,,0.00,weatherlink.com 1.10,2013-04-22 16:30:00,
2013-04-22 11:45:00,63.0,40.0,30.15,SW,236,10.0,15.0,43,0.00,,,0.00,weatherlink.com 1.10,2013-04-22 16:45:00,
2013-04-22 12:00:00,63.7,40.0,30.15,WSW,248,7.0,16.0,42,0.00,,,0.00,weatherlink.com 1.10,2013-04-22 17:00:00,
2013-04-22 12:15:00,63.2,39.0,30.14,South,187,4.0,17.0,41,0.00,,,0.00,weatherlink.com 1.10,2013-04-22 17:15:00,
2013-04-22 12:30:00,64.1,40.0,30.14,SSW,208,9.0,14.0,42,0.00,,,0.00,weatherlink.com 1.10,2013-04-22 17:30:00,
2013-04-22 12:45:00,64.7,40.0,30.13,WSW,256,12.0,17.0,40,0.00,,,0.00,weatherlink.com 1.10,2013-04-22 17:45:00,
2013-04-22 13:00:00,65.5,40.0,30.12,WSW,255,7.0,14.0,40,0.00,,,0.00,weatherlink.com 1.10,2013-04-22 18:00:00,
2013-04-22 13:15:00,65.8,39.0,30.11,SW,229,5.0,14.0,38,0.00,,,0.00,weatherlink.com 1.10,2013-04-22 18:15:00,
2013-04-22 13:30:00,66.1,40.0,30.10,SSW,198,11.0,18.0,38,0.00,,,0.00,weatherlink.com 1.10,2013-04-22 18:30:00,
2013-04-22 13:45:00,66.7,40.0,30.09,SSW,193,5.0,14.0,38,0.00,,,0.00,weatherlink.com 1.10,2013-04-22 18:45:00,
2013-04-22 14:00:00,67.6,40.0,30.08,SSW,203,3.0,12.0,37,0.00,,,0.00,weatherlink.com 1.10,2013-04-22 19:00:00,
2013-04-22 14:15:00,66.9,38.0,30.07,West,267,7.0,19.0,35,0.00,,,0.00,weatherlink.com 1.10,2013-04-22 19:15:00,
2013-04-22 14:30:00,67.7,40.0,30.06,SSW,205,12.0,18.0,36,0.00,,,0.00,weatherlink.com 1.10,2013-04-22 19:30:00,
2013-04-22 14:45:00,67.5,38.0,30.05,SE,146,8.0,18.0,34,0.00,,,0.00,weatherlink.com 1.10,2013-04-22 19:45:00,
2013-04-22 15:00:00,67.3,39.0,30.05,South,188,9.0,19.0,35,0.00,,,0.00,weatherlink.com 1.10,2013-04-22 20:00:00,
2013-04-22 15:15:00,67.8,40.0,30.04,South,189,8.0,18.0,36,0.00,,,0.00,weatherlink.com 1.10,2013-04-22 20:15:00,
2013-04-22 15:30:00,66.4,39.0,30.03,South,178,8.0,21.0,37,0.00,,,0.00,weatherlink.com 1.10,2013-04-22 20:30:00,
2013-04-22 15:45:00,67.0,39.0,30.02,South,172,7.0,18.0,36,0.00,,,0.00,weatherlink.com 1.10,2013-04-22 20:45:00,
2013-04-22 16:00:00,66.9,38.0,30.01,ESE,117,11.0,18.0,34,0.00,,,0.00,weatherlink.com 1.10,2013-04-22 21:00:00,
2013-04-22 16:15:00,66.7,38.0,30.00,SW,220,5.0,19.0,35,0.00,,,0.00,weatherlink.com 1.10,2013-04-22 21:15:00,
2013-04-22 16:30:00,67.4,39.0,30.00,SSW,208,9.0,21.0,35,0.00,,,0.00,weatherlink.com 1.10,2013-04-22 21:30:00,
2013-04-22 16:45:00,67.5,38.0,30.01,SW,227,15.0,20.0,34,0.00,,,0.00,weatherlink.com 1.10,2013-04-22 21:45:00,
2013-04-22 17:01:00,67.7,39.0,30.00,SSE,159,7.0,16.0,35,0.00,,,0.00,weatherlink.com 1.10,2013-04-22 22:01:00,
2013-04-22 17:16:00,67.2,39.0,29.99,SW,229,9.0,20.0,36,0.00,,,0.00,weatherlink.com 1.10,2013-04-22 22:16:00,
2013-04-22 17:31:00,66.7,39.0,29.99,SSE,160,10.0,19.0,36,0.00,,,0.00,weatherlink.com 1.10,2013-04-22 22:31:00,
2013-04-22 17:46:00,66.2,38.0,29.99,South,172,3.0,21.0,35,0.00,,,0.00,weatherlink.com 1.10,2013-04-22 22:46:00,
2013-04-22 18:01:00,65.5,38.0,29.98,SW,227,4.0,16.0,37,0.00,,,0.00,weatherlink.com 1.10,2013-04-22 23:01:00,
2013-04-22 18:16:00,65.2,40.0,29.98,South,187,10.0,15.0,40,0.00,,,0.00,weatherlink.com 1.10,2013-04-22 23:16:00,
2013-04-22 18:31:00,65.1,39.0,29.97,South,172,9.0,16.0,38,0.00,,,0.00,weatherlink.com 1.10,2013-04-22 23:31:00,
2013-04-22 18:46:00,64.5,40.0,29.97,South,174,4.0,14.0,40,0.00,,,0.00,weatherlink.com 1.10,2013-04-22 23:46:00,
2013-04-22 19:01:00,64.0,40.0,29.97,SSW,196,10.0,10.0,42,0.00,,,0.00,weatherlink.com 1.10,2013-04-23 00:01:00,
2013-04-22 19:16:00,63.6,39.0,29.97,South,186,7.0,11.0,40,0.00,,,0.00,weatherlink.com 1.10,2013-04-23 00:16:00,
2013-04-22 19:31:00,62.9,40.0,29.97,SSE,168,4.0,12.0,43,0.00,,,0.00,weatherlink.com 1.10,2013-04-23 00:31:00,
2013-04-22 19:46:00,62.5,39.0,29.97,SSW,208,7.0,12.0,42,0.00,,,0.00,weatherlink.com 1.10,2013-04-23 00:46:00,
2013-04-22 20:01:00,62.4,39.0,29.97,South,182,4.0,12.0,43,0.00,,,0.00,weatherlink.com 1.10,2013-04-23 01:01:00,
2013-04-22 20:16:00,62.0,40.0,29.98,South,169,3.0,8.0,44,0.00,,,0.00,weatherlink.com 1.10,2013-04-23 01:16:00,
2013-04-22 20:31:00,61.6,40.0,29.98,SW,224,6.0,9.0,45,0.00,,,0.00,weatherlink.com 1.10,2013-04-23 01:31:00,
2013-04-22 20:46:00,61.2,41.0,29.98,SW,221,6.0,9.0,47,0.00,,,0.00,weatherlink.com 1.10,2013-04-23 01:46:00,
2013-04-22 21:01:00,60.8,41.0,29.98,South,186,2.0,7.0,49,0.00,,,0.00,weatherlink.com 1.10,2013-04-23 02:01:00,
2013-04-22 21:16:00,60.7,41.0,29.98,South,174,2.0,7.0,49,0.00,,,0.00,weatherlink.com 1.10,2013-04-23 02:16:00,
2013-04-22 21:31:00,60.7,41.0,29.99,South,187,3.0,6.0,49,0.00,,,0.00,weatherlink.com 1.10,2013-04-23 02:31:00,
2013-04-22 21:46:00,59.7,42.0,30.00,SSW,210,2.0,8.0,53,0.00,,,0.00,weatherlink.com 1.10,2013-04-23 02:46:00,
2013-04-22 22:01:00,59.7,43.0,30.00,WSW,245,6.0,10.0,54,0.00,,,0.00,weatherlink.com 1.10,2013-04-23 03:01:00,
2013-04-22 22:16:00,59.4,43.0,30.00,SSW,198,4.0,6.0,55,0.00,,,0.00,weatherlink.com 1.10,2013-04-23 03:16:00,
2013-04-22 22:31:00,60.6,42.0,30.01,WSW,246,8.0,19.0,51,0.00,,,0.00,weatherlink.com 1.10,2013-04-23 03:31:00,
2013-04-22 22:46:00,59.3,44.0,30.01,WSW,249,14.0,16.0,57,0.00,,,0.00,weatherlink.com 1.10,2013-04-23 03:46:00,
2013-04-22 23:01:00,57.2,46.0,30.02,West,281,14.0,23.0,67,0.00,,,0.00,weatherlink.com 1.10,2013-04-23 04:01:00,
2013-04-22 23:16:00,54.9,48.0,30.03,WNW,294,11.0,21.0,77,0.00,,,0.00,weatherlink.com 1.10,2013-04-23 04:16:00,
2013-04-22 23:31:00,53.4,48.0,30.02,WNW,288,4.0,12.0,82,0.00,,,0.00,weatherlink.com 1.10,2013-04-23 04:31:00,
2013-04-22 23:46:00,52.8,48.0,30.02,West,269,6.0,8.0,84,0.01,,,0.01,weatherlink.com 1.10,2013-04-23 04:46:00,